Weather History for LTBA - May, 2013

Change the Weather History Date:

Tuesday, May 28, 2013

  Actual Average Record
Temperature  
Mean Temperature 67 °F -  
Max Temperature 75 °F 76 °F 82 °F (2007)
Min Temperature 59 °F 62 °F 48 °F (1997)
Cooling Degree Days 2    
Growing Degree Days 17 (Base 50)    
Moisture  
Dew Point 47 °F    
Average Humidity 50    
Maximum Humidity 77    
Minimum Humidity 19    
Precipitation  
Precipitation 0.00 in - - ()
Sea Level Pressure  
Sea Level Pressure 29.98 in    
Wind  
Wind Speed 4 mph ()    
Max Wind Speed 9 mph    
Max Gust Speed -    
Visibility 6.0 miles    
Events      
Averages and records for this station are not official NWS values.
T = Trace of Precipitation, MM = Missing Value Source: Averaged Metar Reports

Daily Weather History Graph

Daily Weather History Graph

Search for Another Location

Airport or City:

Trip Planner

Search our weather history database for the weather conditions in past years. The results will help you decide how hot, cold, wet, or windy it might be!

Date:

Astronomy

May. 28, 2013 Rise Set
Actual Time 5:37 AM EEST 8:27 PM EEST
Civil Twilight 5:04 AM EEST 9:00 PM EEST
Nautical Twilight 4:23 AM EEST 9:41 PM EEST
Astronomical Twilight 3:36 AM EEST 10:28 PM EEST
Moon 11:36 PM EEST (5/28) 9:02 AM EEST (5/28)
Length of Visible Light 15h 55m
Length of Day
14h 50m
Waning Gibbous, 85% of the Moon is Illuminated
May 28
Waning Gibbous
May 31
Last Quarter
Jun 8
New
Jun 16
First Quarter
Jun 23
Full

Hourly Weather History & Observations

Time (EEST) Temp. Dew Point Humidity Pressure Visibility Wind Dir Wind Speed Gust Speed Precip Events Conditions
12:20 AM 64.4 °F 53.6 °F 68% 29.98 in - East 4.6 mph - N/A   Clear
12:50 AM 66.2 °F 53.6 °F 64% 29.98 in - Variable 3.5 mph - N/A   Clear
1:20 AM 64.4 °F 51.8 °F 64% 29.98 in - Variable 2.3 mph - N/A   Clear
1:50 AM 64.4 °F 53.6 °F 68% 29.98 in - Variable 2.3 mph - N/A   Clear
2:20 AM 62.6 °F 53.6 °F 72% 29.98 in - Variable 2.3 mph - N/A   Clear
2:50 AM 62.6 °F 53.6 °F 72% 29.98 in - East 2.3 mph - N/A   Clear
3:00 AM 62 °F 53 °F 65% 29.98 in 6 mi East 2.3 mph - -  
3:20 AM 60.8 °F 53.6 °F 77% 29.98 in - SSE 2.3 mph - N/A   Clear
3:50 AM 60.8 °F 53.6 °F 77% 29.98 in - Variable 2.3 mph - N/A   Clear
4:20 AM 60.8 °F 53.6 °F 77% 29.98 in - Variable 1.2 mph - N/A   Clear
4:50 AM 60.8 °F 53.6 °F 77% 29.98 in - SSE 2.3 mph - N/A   Clear
5:20 AM 62.6 °F 55.4 °F 77% 29.98 in - ESE 2.3 mph - N/A   Clear
5:50 AM 60.8 °F 53.6 °F 77% 29.98 in - Variable 2.3 mph - N/A   Clear
6:20 AM 62.6 °F 55.4 °F 77% 29.98 in - South 3.5 mph - N/A   Clear
6:50 AM 64.4 °F 55.4 °F 73% 29.98 in - South 3.5 mph - N/A   Clear
7:20 AM 64.4 °F 55.4 °F 73% 29.98 in - South 4.6 mph - N/A   Clear
7:50 AM 66.2 °F 53.6 °F 64% 29.98 in - South 4.6 mph - N/A   Clear
8:20 AM 66.2 °F 53.6 °F 64% 29.98 in - SW 4.6 mph - N/A   Clear
8:50 AM 68.0 °F 55.4 °F 64% 30.01 in - South 6.9 mph - N/A   Clear
9:00 AM 67 °F 54 °F 53% 30.01 in 6 mi South 6.9 mph - -  
9:20 AM 68.0 °F 55.4 °F 64% 30.01 in - SSW 9.2 mph - N/A   Clear
9:50 AM 68.0 °F 55.4 °F 64% 30.01 in - SW 9.2 mph - N/A   Clear
10:20 AM 68.0 °F 55.4 °F 64% 30.01 in - SSW 8.1 mph - N/A   Clear
10:50 AM 69.8 °F 55.4 °F 60% 30.01 in - SSW 8.1 mph - N/A   Clear
11:20 AM 69.8 °F 51.8 °F 53% 30.01 in - SW 8.1 mph - N/A   Clear
11:50 AM 68.0 °F 51.8 °F 56% 30.01 in - SW 8.1 mph - N/A   Clear
12:20 PM 69.8 °F 55.4 °F 60% 30.01 in - WSW 8.1 mph - N/A   Clear
12:50 PM 71.6 °F 48.2 °F 43% 30.01 in - WSW 6.9 mph - N/A   Clear
1:20 PM 69.8 °F 48.2 °F 46% 30.01 in - SW 6.9 mph - N/A   Clear
1:50 PM 71.6 °F 42.8 °F 35% 29.98 in - SW 5.8 mph - N/A   Clear
2:20 PM 73.4 °F 44.6 °F 36% 29.98 in - SW 6.9 mph - N/A   Clear
2:50 PM 73.4 °F 39.2 °F 29% 29.98 in - WSW 5.8 mph - N/A   Clear
3:00 PM 74 °F 42 °F 20% 29.99 in 6 mi WSW 5.8 mph - -   Clear
3:20 PM 73.4 °F 39.2 °F 29% 29.98 in - WSW 5.8 mph - N/A   Clear
3:50 PM 73.4 °F 39.2 °F 29% 29.98 in - SW 4.6 mph - N/A   Clear
4:20 PM 73.4 °F 35.6 °F 25% 29.98 in - SW 4.6 mph - N/A   Clear
4:50 PM 73.4 °F 37.4 °F 27% 29.98 in - SW 5.8 mph - N/A   Clear
5:20 PM 73.4 °F 35.6 °F 25% 29.98 in - SSW 4.6 mph - N/A   Clear
5:50 PM 75.2 °F 33.8 °F 22% 29.95 in - SSW 3.5 mph - N/A   Clear
6:20 PM 75.2 °F 30.2 °F 19% 29.95 in - SSW 3.5 mph - N/A   Clear
6:50 PM 73.4 °F 33.8 °F 23% 29.95 in - South 4.6 mph - N/A   Clear
7:20 PM 71.6 °F 33.8 °F 25% 29.95 in - South 3.5 mph - N/A   Clear
7:50 PM 73.4 °F 35.6 °F 25% 29.95 in - SE 5.8 mph - N/A   Clear
8:20 PM 69.8 °F 39.2 °F 33% 29.95 in - ESE 5.8 mph - N/A   Clear
8:50 PM 69.8 °F 41.0 °F 35% 29.95 in - ESE 4.6 mph - N/A   Clear
9:00 PM 70 °F 39 °F 22% 29.96 in 6 mi ESE 4.6 mph - -  
9:20 PM 71.6 °F 37.4 °F 29% 29.95 in - East 6.9 mph - N/A   Clear
9:50 PM 69.8 °F 42.8 °F 38% 29.95 in - Variable 5.8 mph - N/A   Clear
10:20 PM 69.8 °F 46.4 °F 43% 29.92 in - East 5.8 mph - N/A   Clear
10:50 PM 69.8 °F 48.2 °F 46% 29.92 in - East 5.8 mph - N/A   Clear
11:20 PM 69.8 °F 48.2 °F 46% 29.92 in - East 5.8 mph - N/A   Clear
11:50 PM 68.0 °F 48.2 °F 49% 29.92 in - East 5.8 mph - N/A   Clear